{"data":{"norad_id":67013,"epoch":"2026-09-20T11:42:47.494080Z","epoch_age_seconds":82291,"freshness":"FRESH","line1":"1 67013U 25293L   26263.48804970 -.00002624  00000+0 -21232-3 0  9995","line2":"2 67013  70.0080 323.4270 0002796 290.4792  69.6067 14.98317863 44060","mean_motion":14.98317863,"eccentricity":0.0002796,"inclination_deg":70.008,"raan_deg":323.427,"arg_perigee_deg":290.4792,"mean_anomaly_deg":69.6067,"bstar":-0.00021232,"rev_number":4406,"period_min":96.107777632496,"perigee_km":570.15013944258,"apogee_km":574.0367082956,"semimajor_km":6950.2304238691,"source":"CELESTRAK","updated_at":"2026-09-21T09:00:36.070368Z"}}